Atka, AK

2:13 PM HST on February 08, 2016 (GMT -1000)
Atka

Weather History for PAAK - November, 2011

Change the Weather History Date:

Thursday, November 24, 2011

  Actual Average (PADK) Record (PADK)
Temperature  
Mean Temperature 32 °F -  
Max Temperature 35 °F 41 °F 56 °F (1970)
Min Temperature 30 °F 32 °F 19 °F (1962)
Degree Days  
Heating Degree Days 32    
Moisture  
Dew Point 25 °F    
Average Humidity 73    
Maximum Humidity 93    
Minimum Humidity 55    
Precipitation  
Precipitation 0.00 in - - ()
Sea Level Pressure  
Sea Level Pressure 29.80 in    
Wind  
Wind Speed 6 mph (NNW)    
Max Wind Speed 21 mph    
Max Gust Speed 31 mph    
Visibility 9 miles    
Events      
Averages and records for this station are not official NWS values.
T = Trace of Precipitation, MM = Missing Value Source: NWS Daily Summary

Daily Weather History Graph

Daily Weather History Graph

Search for Another Location

Airport or City:

Trip Planner

Search our weather history database for the weather conditions in past years. The results will help you decide how hot, cold, wet, or windy it might be!

Date:

Astronomy

Nov. 24, 2011 Rise Set
Actual Time 9:12 AM HST 5:33 PM HST
Civil Twilight 8:33 AM HST 6:12 PM HST
Nautical Twilight 7:51 AM HST 6:55 PM HST
Astronomical Twilight 7:10 AM HST 7:35 PM HST
Moon 8:52 AM HST (11/24) 5:11 PM HST (11/24)
Length of Visible Light 9h 38m
Length of Day
8h 20m
Waning Crescent, 0% of the Moon is Illuminated
Nov 24
Waning Crescent
Nov 24
New
Dec 1
First Quarter
Dec 10
Full
Dec 17
Last Quarter

Hourly Weather History & Observations

Time (HST) Temp. Windchill Dew Point Humidity Pressure Visibility Wind Dir Wind Speed Gust Speed Precip Events Conditions
12:16 AM 33.8 °F 30.8 °F 28.4 °F 81% 29.58 in 10.0 mi WNW 3.5 mph - N/A   Overcast
12:36 AM 33.8 °F 30.8 °F 28.4 °F 81% 29.58 in 10.0 mi WNW 3.5 mph - N/A   Overcast
12:56 AM 33.8 °F 27.7 °F 28.4 °F 81% 29.57 in 10.0 mi WNW 6.9 mph - N/A   Overcast
1:16 AM 35.6 °F - 26.6 °F 70% 29.57 in 10.0 mi Calm Calm - N/A   Overcast
1:36 AM 35.6 °F - 28.4 °F 75% 29.58 in 10.0 mi Calm Calm - N/A   Overcast
1:56 AM 35.6 °F - 28.4 °F 75% 29.58 in 10.0 mi Calm Calm - N/A   Overcast
2:16 AM 35.6 °F 32.8 °F 28.4 °F 75% 29.58 in 10.0 mi North 3.5 mph - N/A   Overcast
2:36 AM 33.8 °F - 28.4 °F 81% 29.59 in 10.0 mi Calm Calm - N/A   Overcast
2:56 AM 33.8 °F - 28.4 °F 81% 29.59 in 10.0 mi Calm Calm - N/A   Overcast
3:16 AM 33.8 °F - 26.6 °F 75% 29.59 in 10.0 mi Calm Calm - N/A   Overcast
3:36 AM 32.0 °F - 28.4 °F 87% 29.60 in 10.0 mi Calm Calm - N/A   Mostly Cloudy
3:56 AM 32.0 °F - 26.6 °F 80% 29.60 in 10.0 mi Calm Calm - N/A   Partly Cloudy
4:16 AM 30.2 °F - 26.6 °F 86% 29.61 in 10.0 mi Calm Calm - N/A   Mostly Cloudy
4:36 AM 30.2 °F - 28.4 °F 93% 29.61 in 10.0 mi Calm Calm - N/A   Overcast
4:56 AM 30.2 °F - 28.4 °F 93% 29.62 in 10.0 mi Calm Calm - N/A   Overcast
5:16 AM 32.0 °F 27.5 °F 26.6 °F 80% 29.62 in 10.0 mi NW 4.6 mph - N/A   Overcast
5:36 AM 32.0 °F 28.7 °F 26.6 °F 80% 29.62 in 10.0 mi NNW 3.5 mph - N/A   Mostly Cloudy
5:56 AM 32.0 °F 26.4 °F 26.6 °F 80% 29.63 in 10.0 mi WNW 5.8 mph - N/A   Mostly Cloudy
6:16 AM 33.8 °F 30.8 °F 26.6 °F 75% 29.64 in 10.0 mi West 3.5 mph - N/A   Overcast
6:36 AM 32.0 °F - 26.6 °F 80% 29.65 in 10.0 mi Calm Calm - N/A   Overcast
6:56 AM 33.8 °F 30.8 °F 28.4 °F 81% 29.67 in 10.0 mi North 3.5 mph - N/A   Overcast
7:16 AM 33.8 °F 27.0 °F 30.2 °F 87% 29.68 in 10.0 mi East 8.1 mph - N/A   Overcast
7:36 AM 33.8 °F 29.6 °F 30.2 °F 87% 29.69 in 10.0 mi ESE 4.6 mph - N/A   Mostly Cloudy
7:56 AM 33.8 °F 27.0 °F 30.2 °F 87% 29.70 in 5.0 mi East 8.1 mph - N/A   Overcast
8:16 AM 33.8 °F - 30.2 °F 87% 29.72 in 2.0 mi Calm Calm - N/A   Overcast
8:36 AM 33.8 °F 25.3 °F 28.4 °F 81% 29.73 in 5.0 mi East 11.5 mph 17.3 mph N/A   Overcast
8:56 AM 33.8 °F 23.2 °F 24.8 °F 70% 29.74 in 10.0 mi East 17.3 mph 20.7 mph N/A   Overcast
9:16 AM 33.8 °F 25.3 °F 24.8 °F 70% 29.75 in 10.0 mi East 11.5 mph 19.6 mph N/A   Overcast
9:36 AM 33.8 °F 29.6 °F 23.0 °F 65% 29.77 in 10.0 mi NNE 4.6 mph - N/A   Mostly Cloudy
9:56 AM 33.8 °F 27.0 °F 24.8 °F 70% 29.78 in 10.0 mi WSW 8.1 mph - N/A   Overcast
10:16 AM 33.8 °F 27.0 °F 24.8 °F 70% 29.79 in 10.0 mi West 8.1 mph - N/A   Overcast
10:36 AM 33.8 °F 25.8 °F 24.8 °F 70% 29.81 in 10.0 mi NNW 10.4 mph 18.4 mph N/A   Overcast
11:16 AM 32.0 °F 22.1 °F 24.8 °F 75% 29.85 in 10.0 mi NW 13.8 mph - N/A   Overcast
11:36 AM 33.8 °F 25.3 °F 24.8 °F 70% 29.86 in 10.0 mi WNW 11.5 mph 19.6 mph N/A   Overcast
11:56 AM 33.8 °F 28.6 °F 19.4 °F 56% 29.87 in 10.0 mi NNW 5.8 mph 19.6 mph N/A   Overcast
12:16 PM 33.8 °F 22.2 °F 23.0 °F 65% 29.88 in 10.0 mi NW 20.7 mph 28.8 mph N/A   Overcast
12:36 PM 33.8 °F 23.2 °F 23.0 °F 65% 29.90 in 10.0 mi NNW 17.3 mph - N/A   Overcast
12:56 PM 33.8 °F 24.3 °F 21.2 °F 60% 29.91 in 10.0 mi NNW 13.8 mph - N/A   Overcast
1:16 PM 33.8 °F 24.3 °F 23.0 °F 65% 29.92 in 10.0 mi NNW 13.8 mph 20.7 mph N/A   Overcast
1:36 PM 32.0 °F 21.2 °F 23.0 °F 69% 29.93 in 3.0 mi NNW 16.1 mph 23.0 mph N/A   Mostly Cloudy
1:56 PM 33.8 °F 23.5 °F 23.0 °F 65% 29.92 in 10.0 mi NNW 16.1 mph 23.0 mph N/A   Mostly Cloudy
2:16 PM 32.0 °F 22.1 °F 21.2 °F 64% 29.94 in 2.5 mi NNW 13.8 mph - N/A   Overcast
2:36 PM 30.2 °F 19.3 °F 24.8 °F 80% 29.96 in 1.2 mi NW 15.0 mph - N/A   Overcast
2:56 PM 33.8 °F 22.8 °F 21.2 °F 60% 29.96 in 10.0 mi NNW 18.4 mph 23.0 mph N/A   Mostly Cloudy
3:16 PM 32.0 °F 20.1 °F 23.0 °F 69% 29.97 in 10.0 mi North 19.6 mph 23.0 mph N/A   Mostly Cloudy
3:36 PM 33.8 °F 23.5 °F 19.4 °F 56% 29.99 in 10.0 mi NNW 16.1 mph 25.3 mph N/A   Scattered Clouds
3:56 PM 30.2 °F 18.5 °F 21.2 °F 69% 29.99 in 10.0 mi NNW 17.3 mph - N/A   Scattered Clouds
4:16 PM 30.2 °F 22.6 °F 23.0 °F 75% 30.01 in 10.0 mi NNW 8.1 mph - N/A   Overcast
4:36 PM 32.0 °F 22.1 °F 17.6 °F 55% 30.02 in 10.0 mi NW 13.8 mph 18.4 mph N/A   Mostly Cloudy
4:56 PM 32.0 °F 20.5 °F 21.2 °F 64% 30.03 in 7.0 mi North 18.4 mph 26.5 mph N/A   Mostly Cloudy
5:16 PM 32.0 °F 21.2 °F 19.4 °F 60% 30.04 in 10.0 mi NNW 16.1 mph 21.9 mph N/A   Mostly Cloudy
5:36 PM 32.0 °F 22.1 °F 17.6 °F 55% 30.06 in 10.0 mi NW 13.8 mph - N/A   Mostly Cloudy
5:56 PM 32.0 °F 22.5 °F 17.6 °F 55% 30.06 in 10.0 mi NNW 12.7 mph 20.7 mph N/A   Mostly Cloudy
6:16 PM - - - N/A% 30.07 in 7.0 mi NNW 20.7 mph 31.1 mph N/A   Mostly Cloudy
6:36 PM 30.2 °F 19.3 °F 19.4 °F 64% 30.08 in 10.0 mi NNW 15.0 mph - N/A   Overcast
6:56 PM 30.2 °F 20.8 °F 21.2 °F 69% 30.09 in 10.0 mi NW 11.5 mph - N/A   Mostly Cloudy
7:16 PM 30.2 °F 19.3 °F 23.0 °F 75% 30.10 in 10.0 mi NW 15.0 mph 25.3 mph N/A   Mostly Cloudy
7:36 PM 32.0 °F 23.0 °F 19.4 °F 60% 30.11 in 10.0 mi NW 11.5 mph - N/A   Overcast
7:56 PM 32.0 °F 20.5 °F 19.4 °F 60% 30.12 in 10.0 mi NNW 18.4 mph 25.3 mph N/A   Overcast
8:16 PM 30.2 °F 20.2 °F 21.2 °F 69% 30.14 in 10.0 mi NW 12.7 mph 21.9 mph N/A   Overcast
8:36 PM 30.2 °F 21.9 °F 19.4 °F 64% 30.15 in 10.0 mi NW 9.2 mph - N/A   Mostly Cloudy
8:56 PM 30.2 °F 23.4 °F 21.2 °F 69% 30.15 in 10.0 mi NNW 6.9 mph - N/A   Scattered Clouds
9:16 PM 30.2 °F 20.8 °F 21.2 °F 69% 30.16 in 10.0 mi NNW 11.5 mph - N/A   Mostly Cloudy
9:36 PM 30.2 °F 20.8 °F 19.4 °F 64% 30.18 in 10.0 mi WNW 11.5 mph - N/A   Partly Cloudy
9:56 PM 32.0 °F 22.1 °F 17.6 °F 55% 30.17 in 10.0 mi NW 13.8 mph 17.3 mph N/A   Mostly Cloudy
10:16 PM 33.8 °F 25.3 °F 17.6 °F 52% 30.18 in 10.0 mi NW 11.5 mph 18.4 mph N/A   Overcast
10:36 PM 32.0 °F 22.1 °F 17.6 °F 55% 30.20 in 10.0 mi NNW 13.8 mph - N/A   Overcast
10:56 PM 32.0 °F 24.8 °F 21.2 °F 64% 30.21 in 10.0 mi NNW 8.1 mph - N/A   Mostly Cloudy
11:16 PM 30.2 °F 20.2 °F 21.2 °F 69% 30.20 in 10.0 mi NW 12.7 mph 16.1 mph N/A   Mostly Cloudy
11:36 PM 30.2 °F 21.9 °F 19.4 °F 64% 30.22 in 10.0 mi North 9.2 mph - N/A   Scattered Clouds
11:56 PM 30.2 °F 23.4 °F 24.8 °F 80% 30.23 in 10.0 mi WNW 6.9 mph - N/A   Mostly Cloudy